Location: Pine Mountain Observatory
(43.7910°N, 120.9377°W)
Time: 19:18:32
(UTC-07:00)

Cosmos 1867 - Visible Passes

Search period start: 23 July 2014 00:00
Search period end: 02 August 2014 00:00
Orbit: 777 x 799 km, 65.0° (Epoch: 22 July)

Date Brightness Start Highest point End Pass type
(mag) Time Alt. Az. Time Alt. Az. Time Alt. Az.
23 Jul 5.1 02:26:26 22° SE 02:27:30 23° ESE 02:31:44 10° ENE visible
23 Jul 3.9 04:07:07 21° SW 04:10:42 57° NW 04:16:06 10° NNE visible
24 Jul 5.4 01:55:49 17° ESE 01:56:07 17° ESE 01:59:32 10° ENE visible
24 Jul 3.6 03:36:29 32° SW 03:39:04 76° NW 03:44:33 10° NNE visible
25 Jul 5.8 01:25:09 12° E 01:25:09 12° E 01:26:47 10° E visible
25 Jul 3.5 03:05:49 47° SSW 03:07:28 83° ESE 03:12:58 10° NE visible
25 Jul 5.3 04:47:35 10° W 04:51:44 22° NW 04:55:55 10° NNE visible
26 Jul 3.6 02:35:07 55° SSE 02:35:55 62° ESE 02:41:19 10° NE visible
26 Jul 5.1 04:15:47 12° W 04:19:56 27° NW 04:24:31 10° NNE visible
27 Jul 4.1 02:04:22 46° ESE 02:04:24 46° ESE 02:09:36 10° NE visible
27 Jul 4.8 03:45:02 19° W 03:48:10 33° NW 03:53:05 10° NNE visible
28 Jul 4.6 01:33:36 33° E 01:33:36 33° E 01:37:48 10° NE visible
28 Jul 4.4 03:14:15 29° W 03:16:26 42° NW 03:21:37 10° NNE visible
28 Jul 5.9 04:59:26 10° NW 05:01:33 12° NNW 05:03:40 10° N visible
29 Jul 5.2 01:02:47 23° E 01:02:47 23° E 01:05:52 10° ENE visible
29 Jul 4.0 02:43:26 43° W 02:44:45 54° NW 02:50:07 10° NNE visible
29 Jul 5.9 04:26:42 10° WNW 04:29:36 14° NNW 04:32:31 10° N visible
30 Jul 5.6 00:31:56 16° E 00:31:56 16° E 00:33:45 10° ENE visible
30 Jul 3.6 02:12:35 66° W 02:13:06 71° NW 02:18:35 10° NNE visible
30 Jul 5.7 03:54:10 10° WNW 03:57:42 17° NNW 04:01:14 10° N visible
31 Jul 5.9 00:01:03 10° E 00:01:03 10° E 00:01:11 10° ENE visible
31 Jul 3.5 01:41:42 84° NE 01:41:42 84° NE 01:47:00 10° NE visible
31 Jul 5.5 03:22:21 12° W 03:25:50 21° NW 03:29:54 10° NNE visible
01 Aug 3.9 01:10:46 58° ENE 01:10:46 58° ENE 01:15:22 10° NE visible
01 Aug 5.3 02:51:25 18° W 02:54:01 25° NW 02:58:31 10° NNE visible
